Location: Chandari
(42.2158°N, 44.6001°E)
Time: 09:44:42
(UTC+00:00)

Daily predictions for brighter satellites

Satellite Brightness Start Highest point End
(mag) Time Altitude Azimuth Time Altitude Azimuth Time Altitude Azimuth
SMAP 3.4 13:56:25 10° SE 14:00:49 44° ENE 14:05:15 10° N
Meteor 1-27 4.3 13:56:51 10° S 14:02:38 72° E 14:08:25 10° NNE
Cosmos 1743 4.1 14:01:43 10° NE 14:03:23 13° ENE 14:05:02 10° ESE
YAOGAN 1 4.4 14:03:10 10° ENE 14:03:33 10° ENE 14:03:57 10° NE
GEOS 3 Rocket 4.4 14:00:12 10° NNE 14:05:23 50° NW 14:10:32 10° WSW
CENTAUR R/B 2.8 14:00:54 10° SW 14:06:15 63° NW 14:13:02 10° NNE
Landsat 7 4.2 14:03:23 10° SE 14:07:42 39° ENE 14:12:02 10° N
COSMO-SKYMED 1 4.4 14:07:29 10° E 14:08:05 10° E 14:08:42 10° E
IRS-1C 4.4 14:07:04 10° SE 14:12:07 47° ENE 14:17:12 10° N
Lacrosse 4 Rocket 2.2 14:08:48 10° SW 14:12:47 49° WNW 14:16:44 10° NNE
ATLAS 2AS CENTAUR R/B 4.5 14:08:52 10° NW 14:14:55 37° WSW 14:20:58 10° S
USA 215 4.5 14:11:37 10° ENE 14:16:42 25° N 14:21:48 10° NW
MOS 1 Rocket 3.9 14:13:41 10° SE 14:17:57 35° ENE 14:22:28 10° N
ARIANE 5 R/B 2.6 14:13:11 10° SE 14:18:03 52° ENE 14:22:59 10° N
Cosmos 2297 Rocket 3.1 14:13:55 10° N 14:18:38 26° NE 14:23:20 10° ESE
IGS 5A 3.7 14:15:26 10° S 14:19:22 70° W 14:23:19 10° NNW
ISS -0.3 14:21:28 10° WSW 14:23:05 13° SW 14:24:42 10° SSW
ATLAS CENTAUR R/B 2.7 14:22:11 10° NNE 14:23:35 12° NE 14:23:39 12° NE
Cosmos 2098 Rocket 3.2 14:20:23 10° SSE 14:23:43 39° E 14:27:39 10° NNE
Cosmos 1758 Rocket 3.8 14:19:44 10° N 14:23:52 43° ENE 14:27:58 10° SSE
Iridium 51 4.3 14:23:43 10° SSW 14:26:43 59° W 14:29:49 10° N
Cosmos 1634 Rocket 4.2 14:20:56 10° S 14:27:09 79° W 14:33:21 10° N
Radarsat 4.5 14:24:16 10° SSE 14:29:25 78° ENE 14:34:36 10° N
Cosmos 1656 3.8 14:24:21 10° S 14:29:49 60° ESE 14:35:23 10° NNE
UNK 3.9 14:25:34 10° N 14:30:10 78° WNW 14:34:43 10° SSW
BREEZE M DEB (TANK) 1.5 14:30:59 10° WSW 14:33:53 83° SSE 14:34:56 24° ENE
NOSS 2-2 (D) 2.7 14:31:05 10° SSW 14:34:43 85° ESE 14:37:01 17° NE
NOSS 2-2 (E) 2.8 14:34:26 10° SSW 14:38:04 70° SE 14:40:06 20° NE
Cosmos 2228 3.8 14:36:40 10° SSW 14:40:46 51° W 14:44:56 10° N
Thor Agena Rocket 4.3 14:37:59 10° S 14:43:08 57° WSW 14:48:16 10° NNW
SL-08 ROCKET BODY 4.3 14:40:29 10° N 14:46:26 81° E 14:52:26 10° S
BREEZE-M DEB (TANK) 3.6 14:44:38 10° NW 14:47:40 38° NNE 14:52:01 19° ENE
Cosmos 2279 Rocket 4.1 14:41:32 10° S 14:47:43 79° W 14:53:58 10° N
Cosmos 1626 Rocket 3.6 14:44:59 10° N 14:49:20 81° W 14:53:37 10° S
SJ-6F 4.2 14:45:57 10° SSE 14:49:50 69° ENE 14:53:49 10° N
Cosmos 405 Rocket 2.6 14:46:37 10° NNW 14:49:51 66° W 14:53:03 10° S
NOSS 3-2 (C) 3.3 14:46:35 10° S 14:51:13 46° ESE 14:54:29 21° NE
CZ-4C R/B 3.4 14:47:39 10° NNW 14:54:02 37° NE 14:59:41 17° E
Cosmos 1606 Rocket 4.1 14:50:36 10° SSE 14:54:35 36° E 14:56:44 22° NE
NOSS 3-2 (A) 3.4 14:49:44 10° SW 14:54:36 63° NW 14:59:40 13° NNE
Cosmos 2360 4.2 14:49:22 10° SSW 14:55:01 71° ESE 15:00:01 14° NNE
Okean 1-7 Rocket 3.9 14:51:16 10° N 14:55:26 40° ENE 14:59:32 10° SSE
Cosmos 2180 Rocket 4.4 14:49:28 10° S 14:55:36 84° E 15:01:46 10° N
Helios 1A Rocket 3.9 14:57:20 21° SE 14:57:20 21° SE 14:59:13 10° SSE
ARIANE 6 FM1 Upper Stage 4.1 14:55:34 10° NW 14:59:18 39° WSW 15:03:04 10° S
Resurs 1-3 4.0 14:55:54 10° SE 14:59:48 36° ENE 15:03:45 10° N
Cosmos 1461 3.4 14:57:53 10° S 15:01:22 33° ESE 15:01:48 32° E
IRS-P3 4.1 14:57:10 10° SSE 15:02:30 88° WSW 15:07:51 10° NNW
Cosmos 1544 Rocket 4.3 14:59:03 10° SSW 15:03:19 53° W 15:07:39 10° N
Cosmos 2263 Rocket 3.9 15:00:16 10° N 15:02:25 15° NNE 15:02:25 15° NNE
IRIDIUM 104 4.3 15:00:03 10° N 15:05:18 87° E 15:10:31 10° S
Cosmos 1503 Rocket 4.0 15:00:57 10° S 15:06:08 62° ESE 15:09:35 21° NNE
BlueWalker 3 2.4 15:03:12 10° NW 15:06:37 37° NNE 15:06:42 37° NNE
IRAS Rocket 4.4 15:01:31 10° SE 15:06:43 45° ENE 15:11:54 10° N
Cosmos 2227 Rocket 3.0 15:04:32 10° N 15:09:22 28° NE 15:09:24 28° NE
Cosmos 1354 Rocket 4.2 15:06:32 10° S 15:11:34 47° ESE 15:13:36 32° NE
SKYMED 2 3.4 15:09:24 13° NNE 15:13:14 85° ESE 15:17:34 10° SSW
Spot 4 Rocket 4.0 15:09:11 10° SSE 15:14:10 59° ENE 15:19:12 10° N
IRIDIUM 114 4.4 15:09:11 10° N 15:14:25 78° W 15:19:37 10° S
Cosmos 1933 3.0 15:13:36 10° S 15:17:25 71° E 15:18:28 44° NNE
Cosmos 1726 Rocket 3.7 15:18:05 10° S 15:22:35 55° E 15:23:32 46° NE
Cosmos 1867 4.2 15:18:03 10° NNW 15:22:46 34° NE 15:22:46 34° NE
USA 290 4.4 15:20:59 10° NNW 15:21:49 17° NNW 15:21:49 17° NNW
Gbstr 26 Del rocket 3.5 15:20:38 10° SSW 15:24:03 37° SSE 15:24:03 37° SSE
BREEZE-M DEB (TANK) 3.5 15:23:15 10° W 15:23:55 19° WNW 15:23:55 19° WNW
Meteor 1-20 Rocket 4.1 15:19:25 10° NNW 15:24:55 83° W 15:30:22 10° S
Cosmos 2151 3.3 15:21:26 10° NNW 15:25:33 64° W 15:29:39 10° S
Cosmos 1602 Rocket 4.0 15:22:13 10° NNW 15:26:33 60° W 15:30:50 10° S
Cosmos 2266 Rocket 4.0 15:21:15 10° N 15:27:26 79° W 15:33:29 10° S
Cosmos 1697 Rocket 2.6 15:22:02 10° S 15:27:31 60° ESE 15:29:16 41° NE
Cosmos 1777 Rocket 4.3 15:26:04 10° SSW 15:31:18 68° WNW 15:34:54 20° NNE
Lacrosse 5 rocket 3.3 15:30:12 10° WNW 15:32:30 16° NNW 15:33:06 15° NNW
Cosmos 1743 4.4 15:34:12 10° NNW 15:37:02 28° W 15:39:50 10° SSW
YAOGAN 1 2.5 15:34:30 10° S 15:38:44 81° WSW 15:43:01 10° NNW
SL-19 R/B 4.0 15:37:51 10° SSE 15:43:06 90° ENE 15:48:36 10° NNW
Cosmos 1607 3.8 15:37:12 10° NNW 15:43:28 80° ENE 15:46:21 34° SE
COSMO-SKYMED 1 2.7 15:42:45 45° NNW 15:43:48 65° WNW 15:47:53 10° SSW
PSLV R/B 4.3 15:39:51 10° S 15:45:17 39° NNW 15:47:53 10° NNW
OceanSat 1 rocket 4.5 15:39:57 10° SSE 15:44:44 86° ENE 15:49:30 10° NNW
USA 238 DEB 4.0 15:44:32 10° S 15:49:02 38° SE 15:49:02 38° SE
USA 238 4.1 15:44:39 10° S 15:49:05 38° SE 15:49:05 38° SE
BREEZE-M DEB (TANK) 4.5 15:46:21 10° SSW 15:53:40 38° SSE 15:53:40 38° SSE
Cosmos 724 4.2 15:47:59 10° NNW 15:54:02 84° WSW 15:56:19 40° SSE
NOAA 6 3.9 15:50:57 10° SSE 15:56:04 85° WSW 16:01:13 10° NNW
USA 215 3.7 15:58:37 41° NNE 15:58:37 41° NNE 16:04:40 10° NW
ATLAS CENTAUR R/B 3.6 15:55:38 10° NW 15:56:00 13° NW 15:56:00 13° NW
Cosmos 1825 Rocket 4.3 15:57:14 10° NNW 16:01:29 51° W 16:05:39 10° S
BREEZE-M DEB (TANK) 4.3 15:37:47 10° WNW 16:01:59 61° N 16:03:39 50° NE
Cosmos 2297 Rocket 3.0 15:57:28 10° NW 16:02:56 50° WSW 16:08:21 10° S
Cosmos 1655 Rocket 4.1 16:01:23 10° NNW 16:07:37 73° W 16:13:47 10° S
Meteor 1-5 Rocket 4.4 16:06:48 10° NNW 16:12:04 66° W 16:17:25 10° S
Cosmos 1980 Rocket 3.5 16:22:28 10° SSW 16:25:21 32° SSW 16:25:21 32° SSW
H-2A R/B 4.3 16:37:21 10° SW 16:37:53 14° SSW 16:37:53 14° SSW
CZ-4C R/B 3.3 16:35:30 10° NW 16:42:50 66° WSW 16:44:46 53° S
Cosmos 2263 Rocket 4.3 16:42:47 10° NNW 16:44:07 18° NNW 16:44:07 18° NNW
Cosmos 2227 Rocket 3.8 16:48:13 10° NW 16:51:16 30° NW 16:51:16 30° NW
